ARIANE 5 R/B, 41863

Orbit data source: Space-Track

ARIANE 5 R/B, 41863 is space debris originally from a launch on Thu, 17 Nov 2016 UTC launched from the French Guiana (FRGUI). Debris objects in space refer to the collection of defunct objects orbiting the Earth. Examples of debris include non-operational satellites, rocket bodies, and fragments generated from explosions, collisions, or faulty payload assembly.

Loading next visibility...
Identifier
41863, 2016-069E
Orbit
Active
Country
Flag of FRFR
Related business
Manufacturer
ADS/Bremen
Mission
Spacecraft
Bus & Motor
EPS+, AESTUS
Mass
3,057 kg wet, 3,057 kg dry
Launch date (UTC)
2016-11-17 (9 years ago)
Launch vehicle
Unknown
Launch site
French Guiana (FRGUI)
Object type
Payload
Rocket body
Debris
Shape & HBR
Cone + Cyl, 2.0 m
Radar Cross Section
18.225 m², Large (>1 m²)

Expand to show TLE details & history
Last TLE update: 2 days ago

TLE from 2 days ago
0 ARIANE 5 R/B
1 41863U 16069E   25257.45990795  .00000010  00000-0  00000-0 0  9994
2 41863  55.3042 105.1722 0002208   4.2315 355.8501  1.73306688 55850
Epoch: 2025-09-14T11:02Z
TLE epoch observation values (Epoch: 2025-09-14T11:02:16.046Z)
Latitude
0.00002°
Longitude
-54.06398°
Altitude
22,892.587 km
Speed
3.691 km/s
True Right ascension
07h 00m 43s
True Declination
0° 00' 00"
Sunlit
Object was in daylight at epoch
Visualization orbit readout
Latitude
Unknown
Longitude
Unknown
Altitude
Unknown
Speed
Unknown
Apparent Right ascension
Unknown
Apparent Declination
Unknown
Sunlit
N/A
Visualization observer readout
Local Sidereal Time
00:05:00
Azimuth
Unknown
Elevation
Unknown
Doppler factor
Unknown
Orbital elements
Apogee altitude
22,905.216 km
Perigee altitude
22,892.287 km
Semi-major axis
29,276.888 km
Eccentricity
0.00022
Inclination
55.3042°
RAAN
105.1722°
Arg. of periapsis
4.2315°
True anomaly
355.84827°
Mean anomaly
355.8501°
Eccentric anomaly
355.84918°
Mean motion
0.43327 °/min
Orbital period
830.9 mins
BSTAR
0
Loading maneuver chart data...
Computing Atmospheric mass density...
Loading historical data...
Loading historical data...
Loading historical data...
Loading historical data...
Loading historical data...
Loading historical data...
Loading historical data...
Other satellites on launch #69 in the year 2016 (2016-11-17 UTC)

Documentation

Showing up to 5 results
|